CW6963 Weather Reports


time (UTC)temp
C
wind
direction
speed
KPH
gust
KPH
rain 1hr
cm
rain 24hr
cm
rain mn
cm
humidity
%
barometer
mb
20260505214529 26 263 11.3 25.7 0.00 0.00 0.00 43 1008.0
20260505213045 26 239 12.9 33.8 0.00 0.00 0.00 41 1007.9
20260505211528 26 193 14.5 32.2 0.00 0.00 0.00 42 1007.8
20260505210030 25 73 8.0 33.8 0.00 0.00 0.00 42 1007.6
20260505204537 26 215 9.7 29.0 0.00 0.00 0.00 42 1007.7
20260505203046 26 202 11.3 24.1 0.00 0.00 0.00 42 1007.8
20260505201542 26 204 12.9 38.6 0.00 0.00 0.00 41 1007.8
20260505200040 26 200 17.7 37.0 0.00 0.00 0.00 40 1007.9
20260505194557 26 189 12.9 37.0 0.00 0.00 0.00 40 1008.1
20260505193043 26 249 14.5 38.6 0.00 0.00 0.00 39 1008.0
20260505191525 26 242 9.7 33.8 0.00 0.00 0.00 39 1008.0
20260505190033 26 197 12.9 37.0 0.00 0.00 0.00 37 1008.2
20260505184536 26 133 16.1 32.2 0.00 0.00 0.00 37 1008.4
20260505183035 26 257 12.9 35.4 0.00 0.00 0.00 39 1008.6
20260505181539 26 202 12.9 33.8 0.00 0.00 0.00 36 1008.6
20260505180043 26 212 17.7 32.2 0.00 0.00 0.00 38 1008.6
20260505174533 26 191 9.7 30.6 0.00 0.00 0.00 43 1008.8
20260505173042 26 294 11.3 35.4 0.00 0.00 0.00 42 1009.1
20260505171536 26 145 24.1 40.2 0.00 0.00 0.00 40 1009.1
20260505170036 26 257 12.9 32.2 0.00 0.00 0.00 45 1009.4
20260505164557 25 218 9.7 32.2 0.00 0.00 0.00 47 1009.6
20260505163053 25 224 11.3 30.6 0.00 0.00 0.00 47 1009.8
20260505161528 25 310 11.3 32.2 0.00 0.00 0.00 47 1009.8
20260505153048 24 257 3.2 22.5 0.00 0.00 0.00 51 1010.3
20260505151545 23 214 8.0 19.3 0.00 0.00 0.00 51 1010.4
20260505124540 17 200 8.0 16.1 0.00 0.00 0.00 70 1011.4
20260505123044 17 211 4.8 16.1 0.00 0.00 0.00 71 1011.2
20260505121529 16 237 4.8 14.5 0.00 0.00 0.00 72 1011.2
20260505120027 16 203 6.4 12.9 0.00 0.00 0.00 73 1010.9
20260505114540 15 187 8.0 16.1 0.00 0.00 0.00 74 1011.1
20260505113039 15 222 3.2 8.0 0.00 0.00 0.00 79 1010.8
20260505111550 13 237 1.6 6.4 0.00 0.00 0.00 84 1010.8
20260505091534 13 305 0.0 0.0 0.00 0.00 0.00 82 1010.5
20260505090053 14 305 0.0 3.2 0.00 0.00 0.00 77 1010.5
20260505084546 13 231 0.0 1.6 0.00 0.00 0.00 77 1010.2
20260505083047 14 231 0.0 3.2 0.00 0.00 0.00 75 1010.0
20260505081549 14 191 0.0 6.4 0.00 0.00 0.00 74 1010.2
20260505080048 15 252 0.0 6.4 0.00 0.00 0.00 71 1010.0
20260505074525 15 238 4.8 11.3 0.00 0.00 0.00 71 1010.2
20260505073026 15 258 4.8 12.9 0.00 0.00 0.00 71 1010.3
20260505071531 15 225 4.8 11.3 0.00 0.00 0.00 71 1010.1
20260505070034 15 228 4.8 11.3 0.00 0.00 0.00 71 1010.2
20260505064537 14 261 1.6 9.7 0.00 0.00 0.00 70 1010.1
20260505063041 14 242 1.6 8.0 0.00 0.00 0.00 70 1010.2
20260505061615 14 234 1.6 9.7 0.00 0.00 0.00 69 1010.3
20260505060051 13 233 3.2 8.0 0.00 0.00 0.00 69 1010.4
20260505054557 14 266 0.0 9.7 0.00 0.00 0.00 67 1010.3
20260505053045 14 218 1.6 8.0 0.00 0.00 0.00 67 1010.3
20260505051531 14 259 0.0 6.4 0.00 0.00 0.00 67 1010.2
20260505041538 14 199 3.2 9.7 0.00 0.00 0.00 64 1010.3
20260505040145 13 214 0.0 6.4 0.00 0.00 0.00 66 1010.2
20260505034545 13 277 0.0 0.0 0.00 0.00 0.00 67 1010.1
20260505033051 13 295 0.0 1.6 0.00 0.00 0.00 66 1010.1
20260505031526 13 295 0.0 0.0 0.00 0.00 0.00 65 1010.3
20260505030047 13 214 0.0 1.6 0.00 0.00 0.00 64 1010.3
20260505024605 14 214 0.0 3.2 0.00 0.00 0.00 64 1010.3
20260505023038 14 270 0.0 6.4 0.00 0.00 0.00 63 1010.5
20260505021546 14 73 0.0 1.6 0.00 0.00 0.00 62 1010.6
20260505020030 15 73 0.0 1.6 0.00 0.00 0.00 61 1010.7
20260505014533 15 73 0.0 1.6 0.00 0.00 0.00 58 1010.5
20260505013038 16 242 0.0 3.2 0.00 0.00 0.00 56 1010.4
20260505011550 16 243 0.0 6.4 0.00 0.00 0.00 55 1010.3
20260505010043 17 293 0.0 3.2 0.00 0.00 0.00 53 1010.1
20260505004544 17 239 1.6 8.0 0.00 0.00 0.00 53 1010.0
20260505003042 17 243 0.0 1.6 0.00 0.00 0.00 52 1009.9
20260505001531 18 230 0.0 9.7 0.00 0.00 0.00 49 1009.8
20260505000027 18 207 0.0 11.3 0.00 0.00 0.00 48 1009.7
20260504234528 19 197 4.8 11.3 0.00 0.00 0.00 46 1009.7
20260504233034 20 270 6.4 16.1 0.00 0.00 0.00 44 1009.4
20260504231534 20 264 6.4 24.1 0.00 0.00 0.00 44 1009.4
20260504230038 20 221 12.9 22.5 0.00 0.00 0.00 43 1009.3
20260504224540 20 199 4.8 20.9 0.00 0.00 0.00 43 1009.2
20260504223037 21 195 6.4 22.5 0.00 0.00 0.00 44 1009.2
20260504221547 21 241 11.3 19.3 0.00 0.00 0.00 44 1009.4
20260504214543 21 231 6.4 17.7 0.00 0.00 0.00 45 1009.5